Flag for U.S.A. Weather past 2 weeks in Escondido, California, U.S.A.

Now
76 °F

Clear.


Feels Like: 78 °F
Forecast: 68 / 82 °F
Wind: 6 mph from West

Location: Ramona Airport

Current Time: Sep 17, 2014 at 8:52:00 PM

Latest Report: Sep 17, 2014 at 7:53 PM


Visibility: 10 mi

Pressure: 29.76 "Hg

Humidity: 52%

Dew point: 57 °F

Location of EscondidoLocation

Historic Weather in Escondido — Graph

°F

Escondido temperature yesterday

Maximum temperature yesterday: 101 °F (at 12:53 PM)
Minimum temperature yesterday: 69 °F (at 3:53 AM)
Average temperature yesterday: 87 °F

Past Weeks' High & Low Weather Summary

 TemperatureHumidityPressure
High102 °F (Sep 15, 12:53 PM)100% (Sep 5, 6:53 AM)29.93 "Hg (Sep 5, 6:53 AM)
Low55 °F (Sep 5, 4:00 AM)12% (Sep 8, 3:53 PM)29.69 "Hg (Sep 13, 3:53 PM)
Average78 °F50%29.79 "Hg
* Reported Sep 2 6:53 PM — Sep 17 6:53 PM, Escondido, Weather by CustomWeather, © 2014

Note: Actual official high and low records may vary slightly from our data, if they occured in-between our weather recording intervals... More about our weather records

Advertising

Escondido weather history for previous 24 hours

 ConditionsComfort  
Time TempWeatherWind HumidityBarometerVisibility
6:53 PM
Sep 17
80 °FSunny.9 mph39%29.74 "Hg10 mi
5:53 PM86 °FSunny.9 mph42%29.72 "Hg10 mi
4:53 PM90 °FSunny.13 mph38%29.71 "Hg10 mi
3:53 PM91 °FScattered clouds.12 mph38%29.70 "Hg10 mi
2:53 PM94 °FScattered clouds.17 mph35%29.71 "Hg10 mi
1:53 PM94 °FSunny.17 mph33%29.71 "Hg10 mi
12:53 PM96 °FScattered clouds.15 mph32%29.72 "Hg10 mi
11:53 AM95 °FScattered clouds.10 mph34%29.73 "Hg10 mi
10:53 AM94 °FScattered clouds.10 mph33%29.74 "Hg10 mi
9:53 AM91 °FSunny.3 mph34%29.75 "Hg10 mi
8:53 AM88 °FSunny.No wind38%29.75 "Hg10 mi
7:53 AM83 °FSunny.No wind44%29.74 "Hg10 mi
6:53 AM75 °FClear.3 mph55%29.73 "Hg10 mi
5:53 AM77 °FPassing clouds.No wind52%29.72 "Hg10 mi
4:53 AM80 °FClear.No wind49%29.71 "Hg10 mi
3:53 AM80 °FPassing clouds.7 mph49%29.72 "Hg10 mi
2:53 AM81 °FClear.6 mph49%29.72 "Hg10 mi
1:53 AM82 °FClear.5 mph48%29.72 "Hg10 mi
12:53 AM84 °FClear.6 mph45%29.73 "Hg10 mi
11:53 PM
Sep 16
85 °FClear.6 mph43%29.75 "Hg10 mi
10:53 PM86 °FClear.8 mph45%29.74 "Hg10 mi
9:53 PM88 °FPassing clouds.6 mph42%29.75 "Hg10 mi
8:53 PM90 °FPassing clouds.9 mph39%29.73 "Hg10 mi
Weather by CustomWeather, © 2014

See weather overviewHow to use our weather pages